User: anonymous   Login
Location: Alvediston
(51.0078°N, 2.0364°W)
Time: 17:19:48
(UTC+00:00)
Language:

SPOT 3 Rocket - Orbit

View from above orbital plane
View from above orbital plane
View from above satellite
View from above satellite

Ground track
Ground track

The orbit data is extracted from the following two-line orbital elements,

1 22830U 93061H   20151.75856268 -.00000030  00000-0  57939-5 0  9992
2 22830  98.7663 200.7859 0011178  20.2142 339.9481 14.31450232392541
Epoch (UTC): 30 May 2020 18:12:19
Eccentricity: 0.0011178
inclination: 98.7663°
perigee height: 779 km
apogee height: 795 km
right ascension of ascending node: 200.7859°
argument of perigee: 20.2142°
revolutions per day: 14.31450232
mean anomaly at epoch: 339.9481°
orbit number at epoch: 39254

The dashed part of the orbit path shows where the satellite is in the earth's shadow,  

DLR